Location: *
(33.8649°S, 62.1526°E)
Time: 03:44:08
(UTC+00:00)

Aurora 2 Rocket - Pass Details

Date: 17 January 2021
Orbit: 390 x 1740 km, 25.0° (Epoch: 27 February)

Event Time Altitude Azimuth Distance (km) Brightness Sun altitude
Rises 16:53:42 0° 284° (WNW) 3,334 6.8 -19.5°
Reaches altitude 10° 16:56:57 10° 297° (WNW) 2,150 5.5 -20.0°
Enters shadow 17:00:14 23° 336° (NNW) 1,256 3.9 -20.5°
